Regional Weather Roundup
Issued by NWS

Home | Current Version | Previous Version | Text Only | Print | Product List | Glossary Off
Versions: 1 2 3 4 5 6 7 8 9 10 11 12 13 14 15 16 17 18 19 20 21 22 23 24 25 26 27 28 29 30 31 32 33 34 35 36 37 38 39 40 41 42 43 44 45 46 47 48 49 50

000
ASUS43 KOAX 222202
RWRNE

WEATHER ROUNDUP FOR NEBRASKA
NATIONAL WEATHER SERVICE OMAHA NE
500 PM CDT THU JUN 22 2017

NOTES: SATELLITE DATA IS BEING USED TO AUGMENT CLOUD COVER ABOVE
       12000 FEET.
       "FAIR" INDICATES FEW OR NO CLOUDS BELOW 12,000 FEET WITH NO
       SIGNIFICANT WEATHER AND/OR OBSTRUCTIONS TO VISIBILITY.

  * THESE STATIONS DO NOT REPORT WEATHER SUCH AS RAIN...SNOW OR FOG.

NEZ001>004-019>022-054>056-222300-
NEBRASKA PANHANDLE

CITY           SKY/WX    TMP DP  RH WIND       PRES   REMARKS
SCOTTSBLUFF    SUNNY     81  53  37 N20G30    29.89F
ALLIANCE       MOSUNNY   75  53  46 N12       29.91F
CHADRON        SUNNY     78  43  28 N14G20    29.92R
GORDON         FAIR      76  50  39 N9G17     29.91S
KIMBALL        CLOUDY    80  50  35 NE16      29.95S
SIDNEY         SUNNY     79  53  40 NE14G24   29.92R
$$

NEZ057>060-069>072-079>082-222300-
SOUTHWEST NEBRASKA

CITY           SKY/WX    TMP DP  RH WIND       PRES   REMARKS
NORTH PLATTE   SUNNY     83  58  42 N24G33    29.80R
IMPERIAL       SUNNY     87  54  32 NE22G30   29.80R
LEXINGTON      PTSUNNY   84  62  48 NE17G23   29.75S
MCCOOK         SUNNY     90  64  42 NE21G28   29.73R HX  91
OGALLALA       SUNNY     84  55  37 N21       29.84S
$$

NEZ005>010-023>029-035>040-094-222300-
NORTH CENTRAL NEBRASKA

CITY           SKY/WX    TMP DP  RH WIND       PRES   REMARKS
VALENTINE      PTSUNNY   76  46  34 NE8       29.87F
AINSWORTH      CLOUDY    70  51  51 NE14      29.88R
BROKEN BOW     PTSUNNY   81  59  47 N14G25    29.78R
O`NEILL        CLOUDY    74  61  63 N16       29.81R
ORD            PTSUNNY   83  57  41 N22G32    29.74R
THEDFORD       CLOUDY    76  56  49 N16G23    29.87R
$$

NEZ041-046>049-061>064-073>077-083>087-222300-
SOUTH CENTRAL NEBRASKA

CITY           SKY/WX    TMP DP  RH WIND       PRES   REMARKS
GRAND ISLAND   PTSUNNY   88  65  46 N20       29.67R HX  90
AURORA         CLOUDY    90  63  40 N10       29.65F HX  91
HASTINGS       CLOUDY    91  63  39 N9        29.67S HX  92
HEBRON         MOSUNNY   96  62  31 S6        29.60F HX  97
HOLDREGE       SUNNY     86  64  47 N22       29.71R
KEARNEY *      SUNNY     90  64  43 N24G32    29.70R HX  91
$$

NEZ011>018-030>034-042>045-222300-
NORTHEAST NEBRASKA

CITY           SKY/WX    TMP DP  RH WIND       PRES   REMARKS
NORFOLK        CLOUDY    81  62  52 N18       29.68R
ALBION         CLOUDY    83  56  38 NE17G25   29.71S
BLAIR          CLOUDY    89  69  50 SW3       29.64F HX  93
FREMONT        CLOUDY    89  66  46 CALM      29.63F HX  92
TEKAMAH        CLOUDY    88  65  46 CALM      29.63S HX  90
WAYNE          CLOUDY    82  64  52 NE15G21   29.70R
$$

NEZ050>053-065>068-078-088>093-222300-
SOUTHEAST NEBRASKA

CITY           SKY/WX    TMP DP  RH WIND       PRES   REMARKS
LINCOLN        CLOUDY    91  66  43 W3        29.63S HX  93
OMAHA EPPLEY   CLOUDY    92  69  47 SW6       29.62S HX  97
BEATRICE       CLOUDY    91  70  49 S10       29.62R HX  96
FALLS CITY     SUNNY     88  68  51 S13G21    29.61F HX  91
NEBRASKA CITY  CLOUDY    89  69  52 SW9       29.64R HX  93
PLATTSMOUTH    CLOUDY    88  67  50 S8        29.63S HX  91
$$

NEZ044-045-051>053-067-222300-
OMAHA AREA

CITY           SKY/WX    TMP DP  RH WIND       PRES   REMARKS
OMAHA EPPLEY   CLOUDY    92  69  47 SW6       29.62S HX  97
BLAIR          CLOUDY    89  69  50 SW3       29.64F HX  93
FREMONT        CLOUDY    89  66  46 CALM      29.63F HX  92
MILLARD        CLOUDY    91  70  49 SW5       29.63S HX  97
OFFUTT AFB     PTSUNNY   91  67  45 SW7       29.62S HX  94
PLATTSMOUTH    CLOUDY    88  67  50 S8        29.63S HX  91
WAHOO          FAIR      88  65  46 S6        29.63F
$$




USA.gov is the U.S. government's official web portal to all federal, state and local government web resources and services.